Wetterdaten: Sonntag, 07.12.2014
Datum Zeit Temp. A. Feuchte A. Luftdruck Regen Wind Richtung Richtung Sonnenschein ET UV Solar Taupunkt Windchill Windben Empfang
07.12.2014 00:00 2,3 C 80 % 1021,7 hPa 0,0 l/m 0,0 km/h (0 Bft) W-SW 256 0 min 0,000 mm 0,0 UV-I 0 W/m -0,8 C 2,3 C 0,0 km/h (0 Bft) 0,00 %
07.12.2014 00:15 2,3 C 80 % 1021,5 hPa 0,0 l/m 0,0 km/h (0 Bft) S 172 0 min 0,000 mm 0,0 UV-I 0 W/m -0,8 C 2,3 C 0,0 km/h (0 Bft) 0,00 %
07.12.2014 00:30 2,3 C 80 % 1021,6 hPa 0,0 l/m 0,0 km/h (0 Bft) W-SW 255 0 min 0,000 mm 0,0 UV-I 0 W/m -0,8 C 2,3 C 0,0 km/h (0 Bft) 0,00 %
07.12.2014 00:45 2,3 C 80 % 1021,5 hPa 0,0 l/m 0,0 km/h (0 Bft) S 183 0 min 0,000 mm 0,0 UV-I 0 W/m -0,8 C 2,3 C 0,0 km/h (0 Bft) 0,00 %
07.12.2014 01:00 2,3 C 80 % 1021,5 hPa 0,0 l/m 0,0 km/h (0 Bft) S-SW 206 0 min 0,000 mm 0,0 UV-I 0 W/m -0,8 C 2,3 C 0,0 km/h (0 Bft) 0,00 %
07.12.2014 01:15 2,2 C 80 % 1021,6 hPa 0,3 l/m 0,0 km/h (0 Bft) S 184 0 min 0,000 mm 0,0 UV-I 0 W/m -0,9 C 2,2 C 0,0 km/h (0 Bft) 0,00 %
07.12.2014 01:30 2,1 C 80 % 1021,6 hPa 0,3 l/m 0,0 km/h (0 Bft) W-SW 252 0 min 0,000 mm 0,0 UV-I 0 W/m -1,0 C 2,1 C 0,0 km/h (0 Bft) 0,00 %
07.12.2014 01:45 2,0 C 80 % 1021,5 hPa 0,6 l/m 0,0 km/h (0 Bft) S-SW 204 0 min 0,000 mm 0,0 UV-I 0 W/m -1,1 C 2,0 C 0,0 km/h (0 Bft) 0,00 %
07.12.2014 02:00 2,0 C 80 % 1021,4 hPa 0,0 l/m 0,0 km/h (0 Bft) SW 230 0 min 0,000 mm 0,0 UV-I 0 W/m -1,1 C 2,0 C 0,0 km/h (0 Bft) 0,00 %
07.12.2014 02:15 1,9 C 80 % 1021,3 hPa 0,3 l/m 0,0 km/h (0 Bft) SW 232 0 min 0,000 mm 0,0 UV-I 0 W/m -1,2 C 1,9 C 0,0 km/h (0 Bft) 0,00 %
07.12.2014 02:30 1,9 C 80 % 1021,4 hPa 0,0 l/m 0,0 km/h (0 Bft) W-SW 250 0 min 0,000 mm 0,0 UV-I 0 W/m -1,2 C 1,9 C 0,0 km/h (0 Bft) 0,00 %
07.12.2014 02:45 1,8 C 80 % 1021,3 hPa 0,3 l/m 0,0 km/h (0 Bft) O-NO 77 0 min 0,000 mm 0,0 UV-I 0 W/m -1,3 C 1,8 C 0,0 km/h (0 Bft) 0,00 %
07.12.2014 03:00 1,8 C 80 % 1021,3 hPa 0,0 l/m 0,0 km/h (0 Bft) S 170 0 min 0,000 mm 0,0 UV-I 0 W/m -1,3 C 1,8 C 0,0 km/h (0 Bft) 0,00 %
07.12.2014 03:15 1,9 C 80 % 1021,0 hPa 0,0 l/m 0,0 km/h (0 Bft) N-NW 340 0 min 0,000 mm 0,0 UV-I 0 W/m -1,2 C 1,9 C 0,0 km/h (0 Bft) 0,00 %
07.12.2014 03:30 1,9 C 80 % 1021,0 hPa 0,0 l/m 0,4 km/h (0 Bft) S-SW 203 0 min 0,000 mm 0,0 UV-I 0 W/m -1,2 C 1,9 C 4,0 km/h (1 Bft) 0,00 %
07.12.2014 03:45 1,9 C 80 % 1020,9 hPa 0,3 l/m 0,0 km/h (0 Bft) S-SW 207 0 min 0,000 mm 0,0 UV-I 0 W/m -1,2 C 1,9 C 0,0 km/h (0 Bft) 0,00 %
07.12.2014 04:00 2,0 C 81 % 1020,9 hPa 0,0 l/m 0,0 km/h (0 Bft) W-NW 300 0 min 0,000 mm 0,0 UV-I 0 W/m -0,9 C 2,0 C 0,0 km/h (0 Bft) 0,00 %
07.12.2014 04:15 1,9 C 81 % 1020,6 hPa 0,0 l/m 0,0 km/h (0 Bft) O 89 0 min 0,000 mm 0,0 UV-I 0 W/m -1,0 C 1,9 C 0,0 km/h (0 Bft) 0,00 %
07.12.2014 04:30 1,9 C 80 % 1020,8 hPa 0,0 l/m 0,0 km/h (0 Bft) S-SW 198 0 min 0,000 mm 0,0 UV-I 0 W/m -1,2 C 1,9 C 0,0 km/h (0 Bft) 0,00 %
07.12.2014 04:45 1,9 C 80 % 1020,8 hPa 0,0 l/m 0,0 km/h (0 Bft) SW 216 0 min 0,000 mm 0,0 UV-I 0 W/m -1,2 C 1,9 C 0,0 km/h (0 Bft) 0,00 %
07.12.2014 05:00 1,9 C 81 % 1020,8 hPa 0,0 l/m 0,0 km/h (0 Bft) W-SW 256 0 min 0,000 mm 0,0 UV-I 0 W/m -1,0 C 1,9 C 0,0 km/h (0 Bft) 0,00 %
07.12.2014 05:15 1,9 C 81 % 1020,8 hPa 0,0 l/m 0,0 km/h (0 Bft) NW 307 0 min 0,000 mm 0,0 UV-I 0 W/m -1,0 C 1,9 C 0,0 km/h (0 Bft) 0,00 %
07.12.2014 05:30 1,9 C 81 % 1020,7 hPa 0,0 l/m 0,0 km/h (0 Bft) W-SW 251 0 min 0,000 mm 0,0 UV-I 0 W/m -1,0 C 1,9 C 0,0 km/h (0 Bft) 0,00 %
07.12.2014 05:45 1,9 C 81 % 1020,7 hPa 0,3 l/m 0,0 km/h (0 Bft) SW 236 0 min 0,000 mm 0,0 UV-I 0 W/m -1,0 C 1,9 C 0,0 km/h (0 Bft) 0,00 %
07.12.2014 06:00 1,9 C 81 % 1020,8 hPa 0,0 l/m 0,4 km/h (0 Bft) W-SW 256 0 min 0,000 mm 0,0 UV-I 0 W/m -1,0 C 1,9 C 4,0 km/h (1 Bft) 0,00 %
07.12.2014 06:15 1,9 C 81 % 1020,9 hPa 0,0 l/m 0,0 km/h (0 Bft) SW 217 0 min 0,000 mm 0,0 UV-I 0 W/m -1,0 C 1,9 C 0,0 km/h (0 Bft) 0,00 %
07.12.2014 06:30 1,9 C 81 % 1020,9 hPa 0,0 l/m 0,0 km/h (0 Bft) O-NO 75 0 min 0,000 mm 0,0 UV-I 0 W/m -1,0 C 1,9 C 0,0 km/h (0 Bft) 0,00 %
07.12.2014 06:45 1,8 C 81 % 1020,8 hPa 0,3 l/m 0,0 km/h (0 Bft) SW 231 0 min 0,000 mm 0,0 UV-I 0 W/m -1,1 C 1,8 C 0,0 km/h (0 Bft) 0,00 %
07.12.2014 07:00 1,8 C 81 % 1020,9 hPa 0,0 l/m 0,0 km/h (0 Bft) S 186 0 min 0,000 mm 0,0 UV-I 0 W/m -1,1 C 1,8 C 0,0 km/h (0 Bft) 0,00 %
07.12.2014 07:15 1,8 C 81 % 1020,8 hPa 0,0 l/m 0,0 km/h (0 Bft) W-SW 240 0 min 0,000 mm 0,0 UV-I 0 W/m -1,1 C 1,8 C 0,0 km/h (0 Bft) 0,00 %
07.12.2014 07:30 1,8 C 81 % 1020,9 hPa 0,0 l/m 0,4 km/h (0 Bft) NW 309 0 min 0,000 mm 0,0 UV-I 0 W/m -1,1 C 1,8 C 4,0 km/h (1 Bft) 0,00 %
07.12.2014 07:45 1,9 C 81 % 1021,2 hPa 0,3 l/m 0,4 km/h (0 Bft) W-SW 256 0 min 0,000 mm 0,0 UV-I 0 W/m -1,0 C 1,9 C 4,0 km/h (1 Bft) 0,00 %
07.12.2014 08:00 1,9 C 81 % 1021,2 hPa 0,0 l/m 0,0 km/h (0 Bft) N-NW 329 0 min 0,000 mm 0,0 UV-I 0 W/m -1,0 C 1,9 C 0,0 km/h (0 Bft) 0,00 %
07.12.2014 08:15 1,9 C 81 % 1021,1 hPa 0,0 l/m 0,4 km/h (0 Bft) SW 228 0 min 0,000 mm 0,0 UV-I 4 W/m -1,0 C 1,9 C 4,0 km/h (1 Bft) 0,00 %
07.12.2014 08:30 2,0 C 81 % 1021,5 hPa 0,3 l/m 0,4 km/h (0 Bft) S-SW 198 0 min 0,000 mm 0,0 UV-I 10 W/m -0,9 C 2,0 C 4,0 km/h (1 Bft) 0,00 %
07.12.2014 08:45 2,0 C 81 % 1021,5 hPa 0,0 l/m 0,0 km/h (0 Bft) N-NW 331 0 min 0,000 mm 0,0 UV-I 20 W/m -0,9 C 2,0 C 0,0 km/h (0 Bft) 0,00 %
07.12.2014 09:00 2,1 C 80 % 1021,2 hPa 0,0 l/m 0,0 km/h (0 Bft) W-SW 253 0 min 0,000 mm 0,0 UV-I 30 W/m -1,0 C 2,1 C 0,0 km/h (0 Bft) 0,00 %
07.12.2014 09:15 2,2 C 80 % 1021,6 hPa 0,3 l/m 0,0 km/h (0 Bft) S 170 0 min 0,000 mm 0,0 UV-I 42 W/m -0,9 C 2,2 C 0,0 km/h (0 Bft) 0,00 %
07.12.2014 09:30 2,4 C 80 % 1021,3 hPa 0,0 l/m 0,4 km/h (0 Bft) S-SW 204 0 min 0,000 mm 1,0 UV-I 49 W/m -0,7 C 2,4 C 4,0 km/h (1 Bft) 0,00 %
07.12.2014 09:45 2,4 C 84 % 1021,5 hPa 0,0 l/m 1,8 km/h (1 Bft) O-SO 104 0 min 0,000 mm 1,0 UV-I 57 W/m -0,0 C 2,4 C 4,0 km/h (1 Bft) 0,00 %
07.12.2014 10:00 2,6 C 84 % 1021,3 hPa 0,0 l/m 0,0 km/h (0 Bft) O 94 0 min 0,000 mm 1,0 UV-I 73 W/m 0,2 C 2,6 C 0,0 km/h (0 Bft) 0,00 %
07.12.2014 10:15 2,8 C 83 % 1021,1 hPa 0,3 l/m 0,4 km/h (0 Bft) S-SW 205 0 min 0,000 mm 1,0 UV-I 79 W/m 0,2 C 2,8 C 4,0 km/h (1 Bft) 0,00 %
07.12.2014 10:30 2,9 C 83 % 1021,2 hPa 0,0 l/m 0,0 km/h (0 Bft) SO 128 0 min 0,000 mm 1,0 UV-I 65 W/m 0,3 C 2,9 C 0,0 km/h (0 Bft) 0,00 %
07.12.2014 10:45 2,9 C 83 % 1021,1 hPa 0,0 l/m 0,7 km/h (0 Bft) W-SW 256 0 min 0,000 mm 1,0 UV-I 67 W/m 0,3 C 2,9 C 4,0 km/h (1 Bft) 0,00 %
07.12.2014 11:00 3,0 C 84 % 1020,9 hPa 0,3 l/m 0,4 km/h (0 Bft) W 281 0 min 0,000 mm 1,0 UV-I 68 W/m 0,6 C 3,0 C 4,0 km/h (1 Bft) 0,00 %
07.12.2014 11:15 3,0 C 83 % 1020,8 hPa 0,0 l/m 2,2 km/h (1 Bft) W-SW 252 0 min 0,000 mm 1,0 UV-I 68 W/m 0,4 C 3,0 C 4,0 km/h (1 Bft) 0,00 %
07.12.2014 11:30 3,1 C 83 % 1020,6 hPa 0,0 l/m 0,0 km/h (0 Bft) W-SW 256 0 min 0,000 mm 1,0 UV-I 80 W/m 0,5 C 3,1 C 0,0 km/h (0 Bft) 0,00 %
07.12.2014 11:45 3,2 C 83 % 1020,6 hPa 0,0 l/m 0,0 km/h (0 Bft) W-SW 255 0 min 0,000 mm 1,0 UV-I 94 W/m 0,6 C 3,2 C 0,0 km/h (0 Bft) 0,00 %
07.12.2014 12:00 3,4 C 82 % 1020,5 hPa 0,3 l/m 0,4 km/h (0 Bft) O-SO 102 0 min 0,000 mm 1,0 UV-I 93 W/m 0,6 C 3,4 C 4,0 km/h (1 Bft) 0,00 %
07.12.2014 12:15 3,2 C 83 % 1020,5 hPa 0,0 l/m 0,0 km/h (0 Bft) SW 223 0 min 0,000 mm 1,0 UV-I 81 W/m 0,6 C 3,2 C 0,0 km/h (0 Bft) 0,00 %
07.12.2014 12:30 3,3 C 83 % 1020,6 hPa 0,0 l/m 0,0 km/h (0 Bft) W-SW 255 0 min 0,000 mm 1,0 UV-I 45 W/m 0,7 C 3,3 C 0,0 km/h (0 Bft) 0,00 %
07.12.2014 12:45 3,2 C 84 % 1020,4 hPa 0,0 l/m 0,4 km/h (0 Bft) W-SW 255 0 min 0,000 mm 1,0 UV-I 47 W/m 0,8 C 3,2 C 4,0 km/h (1 Bft) 0,00 %
07.12.2014 13:00 3,3 C 84 % 1020,4 hPa 0,0 l/m 0,0 km/h (0 Bft) S 190 0 min 0,000 mm 1,0 UV-I 51 W/m 0,9 C 3,3 C 0,0 km/h (0 Bft) 0,00 %
07.12.2014 13:15 3,4 C 83 % 1020,2 hPa 0,3 l/m 0,0 km/h (0 Bft) W-SW 254 0 min 0,000 mm 1,0 UV-I 66 W/m 0,8 C 3,4 C 0,0 km/h (0 Bft) 0,00 %
07.12.2014 13:30 3,5 C 83 % 1020,2 hPa 0,0 l/m 1,8 km/h (1 Bft) W-SW 253 0 min 0,000 mm 1,0 UV-I 68 W/m 0,9 C 3,5 C 4,0 km/h (1 Bft) 0,00 %
07.12.2014 13:45 3,5 C 83 % 1020,1 hPa 0,3 l/m 0,0 km/h (0 Bft) S 186 0 min 0,000 mm 1,0 UV-I 50 W/m 0,9 C 3,5 C 0,0 km/h (0 Bft) 0,00 %
07.12.2014 14:00 3,6 C 83 % 1020,0 hPa 0,0 l/m 0,4 km/h (0 Bft) W-SW 256 0 min 0,000 mm 0,0 UV-I 39 W/m 1,0 C 3,6 C 4,0 km/h (1 Bft) 0,00 %
07.12.2014 14:15 3,5 C 83 % 1019,9 hPa 0,0 l/m 0,7 km/h (0 Bft) W-SW 256 0 min 0,000 mm 0,0 UV-I 43 W/m 0,9 C 3,5 C 4,0 km/h (1 Bft) 0,00 %
07.12.2014 14:30 3,5 C 83 % 1019,8 hPa 0,3 l/m 0,4 km/h (0 Bft) SW 220 0 min 0,000 mm 0,0 UV-I 28 W/m 0,9 C 3,5 C 4,0 km/h (1 Bft) 0,00 %
07.12.2014 14:45 3,5 C 84 % 1019,8 hPa 0,0 l/m 0,0 km/h (0 Bft) W-SW 251 0 min 0,000 mm 0,0 UV-I 18 W/m 1,1 C 3,5 C 0,0 km/h (0 Bft) 0,00 %
07.12.2014 15:00 3,5 C 84 % 1020,0 hPa 0,0 l/m 0,4 km/h (0 Bft) SW 233 0 min 0,000 mm 0,0 UV-I 18 W/m 1,1 C 3,5 C 4,0 km/h (1 Bft) 0,00 %
07.12.2014 15:15 3,4 C 85 % 1019,8 hPa 0,3 l/m 0,4 km/h (0 Bft) SW 229 0 min 0,000 mm 0,0 UV-I 8 W/m 1,1 C 3,4 C 4,0 km/h (1 Bft) 0,00 %
07.12.2014 15:30 3,3 C 85 % 1020,1 hPa 0,3 l/m 1,8 km/h (1 Bft) SW 219 0 min 0,000 mm 0,0 UV-I 2 W/m 1,0 C 3,3 C 4,0 km/h (1 Bft) 0,00 %
07.12.2014 15:45 3,1 C 84 % 1020,0 hPa 0,3 l/m 1,8 km/h (1 Bft) W 281 0 min 0,000 mm 0,0 UV-I 0 W/m 0,7 C 3,1 C 4,0 km/h (1 Bft) 0,00 %
07.12.2014 16:00 3,1 C 84 % 1020,0 hPa 0,0 l/m 0,4 km/h (0 Bft) W-SW 254 0 min 0,000 mm 0,0 UV-I 0 W/m 0,7 C 3,1 C 4,0 km/h (1 Bft) 0,00 %
07.12.2014 16:15 3,1 C 84 % 1019,9 hPa 0,0 l/m 0,0 km/h (0 Bft) S-SW 195 0 min 0,000 mm 0,0 UV-I 0 W/m 0,7 C 3,1 C 0,0 km/h (0 Bft) 0,00 %
07.12.2014 16:30 3,1 C 85 % 1019,7 hPa 0,0 l/m 0,0 km/h (0 Bft) W-SW 255 0 min 0,000 mm 0,0 UV-I 0 W/m 0,8 C 3,1 C 0,0 km/h (0 Bft) 0,00 %
07.12.2014 16:45 3,0 C 85 % 1020,0 hPa 0,0 l/m 0,0 km/h (0 Bft) S-SW 202 0 min 0,000 mm 0,0 UV-I 0 W/m 0,7 C 3,0 C 0,0 km/h (0 Bft) 0,00 %
07.12.2014 17:00 3,0 C 84 % 1019,8 hPa 0,3 l/m 0,0 km/h (0 Bft) S-SW 203 0 min 0,000 mm 0,0 UV-I 0 W/m 0,6 C 3,0 C 0,0 km/h (0 Bft) 0,00 %
07.12.2014 17:15 2,9 C 84 % 1019,9 hPa 0,0 l/m 0,0 km/h (0 Bft) S 178 0 min 0,000 mm 0,0 UV-I 0 W/m 0,5 C 2,9 C 0,0 km/h (0 Bft) 0,00 %
07.12.2014 17:30 2,9 C 84 % 1019,9 hPa 0,0 l/m 0,0 km/h (0 Bft) W-NW 299 0 min 0,000 mm 0,0 UV-I 0 W/m 0,5 C 2,9 C 0,0 km/h (0 Bft) 0,00 %
07.12.2014 17:45 2,9 C 84 % 1019,9 hPa 0,3 l/m 0,0 km/h (0 Bft) S 174 0 min 0,000 mm 0,0 UV-I 0 W/m 0,5 C 2,9 C 0,0 km/h (0 Bft) 0,00 %
07.12.2014 18:00 2,8 C 84 % 1020,0 hPa 0,0 l/m 1,4 km/h (1 Bft) NO 35 0 min 0,000 mm 0,0 UV-I 0 W/m 0,4 C 2,8 C 4,0 km/h (1 Bft) 0,00 %
07.12.2014 18:15 2,8 C 84 % 1020,0 hPa 0,3 l/m 0,0 km/h (0 Bft) SW 218 0 min 0,000 mm 0,0 UV-I 0 W/m 0,4 C 2,8 C 0,0 km/h (0 Bft) 0,00 %
07.12.2014 18:30 2,8 C 84 % 1019,9 hPa 0,0 l/m 0,7 km/h (0 Bft) W-SW 256 0 min 0,000 mm 0,0 UV-I 0 W/m 0,4 C 2,8 C 4,0 km/h (1 Bft) 0,00 %
07.12.2014 18:45 2,8 C 84 % 1020,1 hPa 0,3 l/m 0,0 km/h (0 Bft) O-NO 77 0 min 0,000 mm 0,0 UV-I 0 W/m 0,4 C 2,8 C 0,0 km/h (0 Bft) 0,00 %
07.12.2014 19:00 2,8 C 84 % 1019,9 hPa 0,3 l/m 0,4 km/h (0 Bft) W-NW 295 0 min 0,000 mm 0,0 UV-I 0 W/m 0,4 C 2,8 C 4,0 km/h (1 Bft) 0,00 %
07.12.2014 19:15 2,8 C 84 % 1020,2 hPa 0,0 l/m 0,0 km/h (0 Bft) W-SW 251 0 min 0,000 mm 0,0 UV-I 0 W/m 0,4 C 2,8 C 0,0 km/h (0 Bft) 0,00 %
07.12.2014 19:30 2,7 C 84 % 1020,3 hPa 0,0 l/m 0,4 km/h (0 Bft) SW 218 0 min 0,000 mm 0,0 UV-I 0 W/m 0,3 C 2,7 C 4,0 km/h (1 Bft) 0,00 %
07.12.2014 19:45 2,7 C 84 % 1020,3 hPa 0,3 l/m 1,8 km/h (1 Bft) S-SW 203 0 min 0,000 mm 0,0 UV-I 0 W/m 0,3 C 2,7 C 4,0 km/h (1 Bft) 0,00 %
07.12.2014 20:00 2,8 C 84 % 1020,2 hPa 0,0 l/m 0,4 km/h (0 Bft) W-NW 300 0 min 0,000 mm 0,0 UV-I 0 W/m 0,4 C 2,8 C 4,0 km/h (1 Bft) 0,00 %
07.12.2014 20:15 2,8 C 84 % 1020,1 hPa 0,0 l/m 0,4 km/h (0 Bft) NW 313 0 min 0,000 mm 0,0 UV-I 0 W/m 0,4 C 2,8 C 4,0 km/h (1 Bft) 0,00 %
07.12.2014 20:30 2,8 C 84 % 1020,5 hPa 0,0 l/m 2,2 km/h (1 Bft) W-SW 255 0 min 0,000 mm 0,0 UV-I 0 W/m 0,4 C 2,8 C 4,0 km/h (1 Bft) 0,00 %
07.12.2014 20:45 2,9 C 84 % 1020,3 hPa 0,0 l/m 0,0 km/h (0 Bft) O 89 0 min 0,000 mm 0,0 UV-I 0 W/m 0,5 C 2,9 C 0,0 km/h (0 Bft) 0,00 %
07.12.2014 21:00 2,9 C 84 % 1020,4 hPa 0,3 l/m 0,4 km/h (0 Bft) W-SW 256 0 min 0,000 mm 0,0 UV-I 0 W/m 0,5 C 2,9 C 4,0 km/h (1 Bft) 0,00 %
07.12.2014 21:15 2,9 C 84 % 1020,3 hPa 0,0 l/m 3,2 km/h (1 Bft) W-SW 251 0 min 0,000 mm 0,0 UV-I 0 W/m 0,5 C 2,9 C 4,0 km/h (1 Bft) 0,00 %
07.12.2014 21:30 2,9 C 84 % 1020,3 hPa 0,3 l/m 0,7 km/h (0 Bft) SW 233 0 min 0,000 mm 0,0 UV-I 0 W/m 0,5 C 2,9 C 4,0 km/h (1 Bft) 0,00 %
07.12.2014 21:45 2,9 C 84 % 1020,1 hPa 0,0 l/m 0,0 km/h (0 Bft) W-SW 254 0 min 0,000 mm 0,0 UV-I 0 W/m 0,5 C 2,9 C 0,0 km/h (0 Bft) 0,00 %
07.12.2014 22:00 2,9 C 84 % 1020,1 hPa 0,0 l/m 0,4 km/h (0 Bft) W-SW 256 0 min 0,000 mm 0,0 UV-I 0 W/m 0,5 C 2,9 C 4,0 km/h (1 Bft) 0,00 %
07.12.2014 22:15 3,0 C 84 % 1020,2 hPa 0,3 l/m 0,7 km/h (0 Bft) NO 48 0 min 0,000 mm 0,0 UV-I 0 W/m 0,6 C 3,0 C 4,0 km/h (1 Bft) 0,00 %
07.12.2014 22:30 3,0 C 84 % 1020,2 hPa 0,0 l/m 0,0 km/h (0 Bft) SW 225 0 min 0,000 mm 0,0 UV-I 0 W/m 0,6 C 3,0 C 0,0 km/h (0 Bft) 0,00 %
07.12.2014 22:45 3,0 C 84 % 1020,2 hPa 0,0 l/m 0,4 km/h (0 Bft) SO 135 0 min 0,000 mm 0,0 UV-I 0 W/m 0,6 C 3,0 C 4,0 km/h (1 Bft) 0,00 %
07.12.2014 23:00 3,0 C 84 % 1020,1 hPa 0,0 l/m 0,0 km/h (0 Bft) S 184 0 min 0,000 mm 0,0 UV-I 0 W/m 0,6 C 3,0 C 0,0 km/h (0 Bft) 0,00 %
07.12.2014 23:15 2,9 C 85 % 1020,0 hPa 0,0 l/m 0,0 km/h (0 Bft) S-SW 210 0 min 0,000 mm 0,0 UV-I 0 W/m 0,6 C 2,9 C 0,0 km/h (0 Bft) 0,00 %
07.12.2014 23:30 2,9 C 85 % 1019,9 hPa 0,3 l/m 1,8 km/h (1 Bft) SW 223 0 min 0,000 mm 0,0 UV-I 0 W/m 0,6 C 2,9 C 7,9 km/h (2 Bft) 0,00 %
07.12.2014 23:45 2,8 C 85 % 1020,0 hPa 0,0 l/m 0,4 km/h (0 Bft) N-NW 334 0 min 0,000 mm 0,0 UV-I 0 W/m 0,5 C 2,8 C 4,0 km/h (1 Bft) 0,00 %
_ Min-Zeit 02:45 00:00 16:30 - 00:00 - - - - - - 02:45 02:45 00:00 00:00
Minimum _ 1,8 C 80 % 1019,7 hPa - 0,0 km/h (0 Bft) - - - - - - -1,3 C 1,8 C 0,0 km/h (0 Bft) 0,00 %
_ Max-Zeit 14:00 15:15 00:00 01:45 21:15 - - 00:00 00:00 09:30 11:45 15:15 14:00 23:30 00:00
Maximum _ 3,6 C 85 % 1021,7 hPa 0,6 l/m 3,2 km/h
W-SW (1 Bft)
- - 0 min 0,000 mm 1,0 UV-I 94 W/m 1,1 C 3,6 C 7,9 km/h
SW (2 Bft)
0,00 %
Durchschnitt _ 2,6 C 82 % 1020,6 hPa #9,3 l/m 0,3 km/h (0 Bft) W-SW - #0 min. #0,000 mm 1,0 UV-I 49 W/m -0,1 C 2,6 C 1,7 km/h (1 Bft) 0,00 %